星链-4149 (STARLINK-4149 )

导读

STARLINK-4149是美国太空探索技术公司SpaceX星链星座中的一颗低轨通信卫星,于2022年7月24日发射入轨,属于星链第一代组网卫星。它运行在近地轨道,配备相控阵天线与氪离子推进系统,依托星链全球低轨星座,可提供高速低时延的宽带互联网服务,支撑星链全球覆盖、军民两用的通信布局,是星链近万颗组网卫星中的重要组成单元。

Basic Information
目录编号:
53290
目录名称:
STARLINK-4149
国际标识:
2022-086BA
轨道中心:
EARTH
卫星名称:
星链-4149
卫星全名:
星链-4149 (STARLINK-4149 )
卫星状态:
在轨 (已飞行1424 天)
发射日期:
2022-07-24 UTC
国别 :
美国 (US)
星等 :
--
Orbit Information
数据来源 国际轨道数据 AOE轨道数据
星历时间 2026-06-17T09:53:34+0800
11小时前
查看轨道信息
2026-06-16T01:00:00+0800
1天前
查看轨道信息
半长轴 6916.707km 6916.853km
偏心率 0.0001783 0.0001825
轨道倾角 53.217° 53.216°
近地点辐角 74.553° 68.764°
升交点赤经 97.920° 104.077°
平近点角 285.566° 40.989°
近地点 537.336km 537.453km
远地点 539.804km 539.979km
周期 95.413分钟 95.416分钟
每日圈数 15.092241 15.091764
Detailed Information
固有亮度:
5
最大亮度:
2.5
卫星平台:
Starlink v1.5
覆盖范围:
全球
运营商:
太空探索技术公司
运营商所在国:
美国
制造商(研发单位):
太空探索技术公司
制造商所在国:
美国
使用方式:
暂无
Satellite Introduction
星链(Starlink)计划是由太空探索技术公司(SpaceX)提出的一个巨型低轨卫星互联网星座项目,计划在2019年至2024年间在太空搭建由约1.2万颗卫星组成的“星链”网络,其中1584颗将部署在地球上空550千米处的近地轨道,并从2020年开始工作。该卫星仍在工作。
2D Orbit Map
3D Orbit Map
Orbit Altitude Analysis Chart
Orbit Inclination Analysis Chart
Orbit Comprehensive Analysis Chart
View Comprehensive Chart